Hourly Weather Tipsino

Today, 29 September, Tuesday

Time Temperature Precipitation Wind Pressure Humidity
00:00 +1°C° 0 mm 4 mps 760 mmHg 93%
01:00 +1°C° 0.2 mm 4 mps 760 mmHg 91%
02:00 0°C° 0.2 mm 4 mps 760 mmHg 90%
03:00 -1°C° 0.2 mm 4 mps 761 mmHg 88%
04:00 -1°C° 0 mm 4 mps 762 mmHg 88%
05:00 -2°C° 0 mm 4 mps 763 mmHg 88%
06:00 -1°C° 0 mm 3 mps 763 mmHg 88%
07:00 -2°C° 0 mm 4 mps 764 mmHg 84%
08:00 -1°C° 0 mm 4 mps 764 mmHg 80%
09:00 0°C° 0 mm 4 mps 764 mmHg 76%
10:00 +1°C° 0 mm 4 mps 765 mmHg 70%
11:00 +3°C° 0 mm 4 mps 765 mmHg 64%
12:00 +5°C° 0 mm 4 mps 765 mmHg 59%
13:00 +5°C° 0 mm 4 mps 765 mmHg 57%
14:00 +5°C° 0 mm 4 mps 765 mmHg 55%
15:00 +6°C° 0 mm 4 mps 765 mmHg 54%
16:00 +5°C° 0 mm 3 mps 766 mmHg 58%
17:00 +4°C° 0 mm 3 mps 766 mmHg 62%
18:00 +4°C° 0 mm 2 mps 767 mmHg 67%
19:00 +3°C° 0 mm 2 mps 767 mmHg 70%
20:00 +3°C° 0 mm 2 mps 767 mmHg 73%
21:00 +3°C° 0 mm 1 mps 767 mmHg 77%
22:00 +3°C° 0 mm 1 mps 767 mmHg 78%
23:00 +2°C° 0 mm 1 mps 767 mmHg 78%

Tomorrow, 30 September, Wednesday

Time Temperature Precipitation Wind Pressure Humidity
00:00 +2°C° 0 mm 1 mps 767 mmHg 79%
01:00 +2°C° 0 mm 1 mps 767 mmHg 82%
02:00 +1°C° 0 mm 1 mps 767 mmHg 84%
03:00 +1°C° 0 mm 1 mps 767 mmHg 87%
04:00 +1°C° 0 mm 1 mps 767 mmHg 87%
05:00 +1°C° 0 mm 1 mps 767 mmHg 88%
06:00 -1°C° 0 mm 2 mps 767 mmHg 88%
07:00 +1°C° 0 mm 2 mps 766 mmHg 85%
08:00 +2°C° 0 mm 2 mps 766 mmHg 81%
09:00 +3°C° 0 mm 2 mps 765 mmHg 77%
10:00 +3°C° 0 mm 3 mps 765 mmHg 73%
11:00 +4°C° 0 mm 3 mps 765 mmHg 69%
12:00 +5°C° 0 mm 4 mps 764 mmHg 66%
13:00 +4°C° 0.1 mm 4 mps 764 mmHg 71%
14:00 +4°C° 0.1 mm 4 mps 763 mmHg 77%
15:00 +3°C° 0.1 mm 4 mps 762 mmHg 83%
16:00 +3°C° 0.3 mm 3 mps 762 mmHg 87%
17:00 +3°C° 0.3 mm 3 mps 762 mmHg 92%
18:00 +2°C° 0.3 mm 3 mps 761 mmHg 96%
19:00 +3°C° 0.3 mm 3 mps 761 mmHg 96%
20:00 +3°C° 0.3 mm 3 mps 761 mmHg 96%
21:00 +3°C° 0.3 mm 3 mps 760 mmHg 96%
22:00 +3°C° 0.1 mm 3 mps 760 mmHg 96%
23:00 +3°C° 0.1 mm 3 mps 760 mmHg 96%

Day after tomorrow, 1 October, Thursday

Time Temperature Precipitation Wind Pressure Humidity
00:00 +3°C° 0.1 mm 3 mps 761 mmHg 96%
01:00 +3°C° 0 mm 3 mps 761 mmHg 95%
02:00 +3°C° 0 mm 3 mps 761 mmHg 95%
03:00 +3°C° 0 mm 3 mps 761 mmHg 94%
04:00 +2°C° 0 mm 3 mps 761 mmHg 94%
05:00 +3°C° 0 mm 2 mps 762 mmHg 94%
06:00 +2°C° 0 mm 2 mps 763 mmHg 94%
07:00 +2°C° 0 mm 2 mps 763 mmHg 91%
08:00 +3°C° 0 mm 2 mps 763 mmHg 89%
09:00 +3°C° 0 mm 2 mps 763 mmHg 86%
10:00 +4°C° 0 mm 2 mps 764 mmHg 81%
11:00 +5°C° 0 mm 2 mps 764 mmHg 75%
12:00 +5°C° 0 mm 3 mps 764 mmHg 70%
13:00 +5°C° 0 mm 3 mps 764 mmHg 69%
14:00 +6°C° 0 mm 2 mps 764 mmHg 68%
15:00 +6°C° 0 mm 2 mps 764 mmHg 67%
16:00 +6°C° 0 mm 2 mps 765 mmHg 70%
17:00 +6°C° 0 mm 1 mps 765 mmHg 72%
18:00 +6°C° 0 mm 1 mps 765 mmHg 75%
19:00 +5°C° 0 mm 1 mps 765 mmHg 79%
20:00 +4°C° 0 mm 1 mps 765 mmHg 83%
21:00 +3°C° 0 mm 1 mps 765 mmHg 87%
22:00 +3°C° 0 mm 1 mps 765 mmHg 89%
23:00 +2°C° 0 mm 1 mps 765 mmHg 91%

2 October, Friday

Time Temperature Precipitation Wind Pressure Humidity
00:00 +2°C° 0 mm 1 mps 765 mmHg 94%
01:00 +1°C° 0 mm 1 mps 765 mmHg 94%
02:00 +1°C° 0 mm 1 mps 765 mmHg 95%
03:00 +1°C° 0 mm 1 mps 765 mmHg 95%
04:00 +1°C° 0 mm 1 mps 765 mmHg 95%
05:00 +1°C° 0 mm 1 mps 765 mmHg 96%
06:00 -1°C° 0 mm 2 mps 765 mmHg 96%
07:00 +1°C° 0 mm 2 mps 764 mmHg 92%
08:00 +2°C° 0 mm 2 mps 764 mmHg 87%
09:00 +3°C° 0 mm 2 mps 764 mmHg 83%
10:00 +4°C° 0 mm 2 mps 763 mmHg 82%
11:00 +4°C° 0 mm 3 mps 763 mmHg 82%
12:00 +5°C° 0 mm 3 mps 763 mmHg 81%
13:00 +5°C° 0.1 mm 3 mps 763 mmHg 83%
14:00 +5°C° 0.1 mm 3 mps 762 mmHg 84%
15:00 +7°C° 0.1 mm 3 mps 762 mmHg 86%
16:00 +7°C° 0.1 mm 3 mps 761 mmHg 89%
17:00 +7°C° 0.1 mm 3 mps 761 mmHg 92%
18:00 +7°C° 0.1 mm 3 mps 760 mmHg 94%
19:00 +7°C° 0.1 mm 3 mps 760 mmHg 95%
20:00 +7°C° 0.1 mm 3 mps 760 mmHg 96%
21:00 +7°C° 0.1 mm 3 mps 759 mmHg 97%
22:00 +7°C° 0 mm 3 mps 759 mmHg 96%
23:00 +8°C° 0 mm 3 mps 758 mmHg 96%

3 October, Saturday

Time Temperature Precipitation Wind Pressure Humidity
00:00 +7°C° 0 mm 4 mps 758 mmHg 96%
01:00 +8°C° 0 mm 3 mps 758 mmHg 96%
02:00 +7°C° 0 mm 3 mps 757 mmHg 96%
03:00 +7°C° 0 mm 3 mps 757 mmHg 96%
04:00 +7°C° 0 mm 3 mps 756 mmHg 96%
05:00 +6°C° 0 mm 4 mps 756 mmHg 96%
06:00 +6°C° 0 mm 4 mps 756 mmHg 96%
07:00 +6°C° 0 mm 4 mps 756 mmHg 96%
08:00 +6°C° 0 mm 4 mps 755 mmHg 96%
09:00 +6°C° 0 mm 4 mps 755 mmHg 95%
10:00 +7°C° 0 mm 4 mps 755 mmHg 94%
11:00 +8°C° 0 mm 3 mps 755 mmHg 92%
12:00 +8°C° 0 mm 3 mps 754 mmHg 91%
13:00 +8°C° 0 mm 3 mps 754 mmHg 90%
14:00 +9°C° 0 mm 3 mps 754 mmHg 89%
15:00 +9°C° 0 mm 3 mps 754 mmHg 88%
16:00 +9°C° 0 mm 3 mps 753 mmHg 89%
17:00 +9°C° 0 mm 2 mps 753 mmHg 91%
18:00 +8°C° 0 mm 2 mps 753 mmHg 92%
19:00 +8°C° 0.1 mm 2 mps 752 mmHg 93%
20:00 +8°C° 0.1 mm 2 mps 752 mmHg 93%
21:00 +8°C° 0.1 mm 2 mps 752 mmHg 93%
22:00 +8°C° 0.2 mm 2 mps 751 mmHg 94%
23:00 +8°C° 0.2 mm 2 mps 751 mmHg 94%

4 October, Sunday

Time Temperature Precipitation Wind Pressure Humidity
00:00 +8°C° 0.2 mm 2 mps 751 mmHg 95%
01:00 +7°C° 0.4 mm 3 mps 751 mmHg 95%
02:00 +7°C° 0.4 mm 3 mps 751 mmHg 95%
03:00 +5°C° 0.4 mm 3 mps 751 mmHg 95%
04:00 +4°C° 0.3 mm 4 mps 751 mmHg 95%
05:00 +1°C° 0.3 mm 4 mps 751 mmHg 95%
06:00 0°C° 0.3 mm 5 mps 752 mmHg 95%
07:00 0°C° 0.1 mm 5 mps 752 mmHg 93%
08:00 -1°C° 0.1 mm 5 mps 753 mmHg 91%
09:00 -1°C° 0.1 mm 5 mps 754 mmHg 89%
10:00 -1°C° 0 mm 5 mps 754 mmHg 86%
11:00 -1°C° 0 mm 5 mps 754 mmHg 83%
12:00 0°C° 0 mm 5 mps 755 mmHg 80%
13:00 0°C° 0.1 mm 5 mps 755 mmHg 76%
14:00 0°C° 0.1 mm 5 mps 756 mmHg 72%
15:00 +1°C° 0.1 mm 5 mps 756 mmHg 67%
16:00 0°C° 0 mm 4 mps 757 mmHg 72%
17:00 0°C° 0 mm 3 mps 757 mmHg 76%
18:00 -1°C° 0 mm 3 mps 757 mmHg 80%
19:00 -1°C° 0 mm 3 mps 758 mmHg 82%
20:00 -2°C° 0 mm 3 mps 758 mmHg 85%
21:00 -2°C° 0 mm 3 mps 758 mmHg 87%
22:00 -2°C° 0 mm 3 mps 758 mmHg 87%
23:00 -2°C° 0 mm 4 mps 758 mmHg 88%
Show more